Location: Degerfors
(59.2294°N, 14.4406°E)
Time: 02:49:09
(UTC+01:00)

ISS - Visible Passes

Search period start: 27 February 2021 00:00
Search period end: 09 March 2021 00:00
Orbit: 417 x 422 km, 51.6° (Epoch: 27 February)

Date Brightness Start Highest point End Pass type
(mag) Time Alt. Az. Time Alt. Az. Time Alt. Az.
27 Feb -1.4 04:52:11 13° S 04:53:18 15° SSE 04:55:21 10° ESE visible
28 Feb -1.0 04:06:35 12° SE 04:06:35 12° SE 04:07:36 10° SE visible
28 Feb -1.8 05:39:33 11° SW 05:42:04 22° S 05:44:43 10° ESE visible
01 Mar -1.9 04:53:54 18° S 04:54:46 20° SSE 04:57:19 10° ESE visible
02 Mar -1.5 04:08:13 17° SE 04:08:13 17° SE 04:09:50 10° ESE visible
02 Mar -2.0 05:41:10 12° SW 05:43:34 22° S 05:46:16 10° SE visible
03 Mar -2.1 04:55:29 21° SSW 04:56:15 23° S 04:58:57 10° SE visible
04 Mar -1.7 04:09:46 20° SSE 04:09:46 20° SSE 04:11:34 10° ESE visible
04 Mar -1.9 05:42:43 11° WSW 05:45:01 20° SSW 05:47:33 10° SE visible
05 Mar -0.7 03:24:04 10° ESE 03:24:04 10° ESE 03:24:08 10° ESE visible
05 Mar -2.2 04:57:01 20° SSW 04:57:41 21° S 05:00:20 10° SE visible
06 Mar -1.8 04:11:19 20° SSE 04:11:19 20° SSE 04:13:02 10° SE visible
06 Mar -1.6 05:44:24 10° WSW 05:46:22 15° SSW 05:48:20 10° SSE visible
07 Mar -0.7 03:25:40 10° SE 03:25:40 10° SE 03:25:41 10° SE visible
07 Mar -1.9 04:58:37 17° SSW 04:59:03 17° SSW 05:01:21 10° SSE visible
08 Mar -1.6 04:13:00 16° SSE 04:13:00 16° SSE 04:14:13 10° SE visible
